Dewpoint
39 40 40 37 33 33 34 35 35 35 36 37 37 36 35 37 38 31 30 29 28 28 27 27 28 28 29 29 27 27 25 26
38 35 32 31 32 33 34 34 33 33 33 33 33 34 34 33 32 30 29 28 28 28 27 27 27 27 29 29 27 26 25 26
34 32 31 32 33 34 32 30 30 30 31 32 35 34 34 32 27 26 28 29 29 29 27 27 27 28 27 28 26 26 25 27
32 31 32 33 31 30 29 29 29 30 31 29 28 27 26 25 25 25 26 28 29 28 27 27 28 28 27 28 27 26 25 26
31 33 34 32 30 29 29 29 29 30 30 26 25 25 25 26 26 26 26 27 28 28 28 27 27 28 28 28 29 26 27 25
32 33 33 31 30 30 30 29 29 30 28 26 25 24 26 26 25 25 26 27 27 29 28 28 28 28 28 28 27 26 28 27
33 34 32 31 31 30 30 30 30 30 27 27 25 23 24 23 24 25 26 27 26 27 28 28 26 25 27 27 26 26 28 27
34 33 31 30 31 31 32 32 30 27 26 26 25 24 24 25 26 25 25 24 26 25 26 25 24 25 26 27 26 26 27 26
34 33 31 33 36 37 35 33 26 25 26 25 25 25 26 26 25 24 24 23 24 24 24 24 24 25 25 26 26 27 27 24
34 32 34 36 36 36 36 33 25 24 25 25 25 24 23 22 21 21 23 22 23 23 23 23 23 24 24 25 26 23 23 21
32 33 35 37 36 36 34 28 24 24 26 25 23 22 20 20 20 19 20 21 21 21 22 23 23 23 23 24 22 20 20 19
32 34 36 37 36 36 28 25 23 23 24 21 19 18 19 18 18 19 20 21 21 21 23 23 22 23 24 22 21 20 20 19
33 34 36 37 36 34 26 24 22 23 21 18 17 17 18 16 17 19 20 20 21 22 23 22 22 23 23 21 22 21 20 19
33 34 37 37 37 36 30 22 21 18 15 15 16 17 18 18 19 21 21 21 21 22 23 22 23 23 22 22 22 21 20 21
31 36 37 38 36 36 26 21 17 14 14 15 16 17 18 19 21 21 22 22 21 22 22 23 21 21 22 23 22 21 21 23
36 37 38 36 35 33 21 18 13 16 16 17 18 20 20 20 20 22 21 20 20 21 20 21 20 21 22 21 22 21 22 23
36 37 36 34 34 24 18 15 16 17 17 19 21 21 22 19 20 19 15 17 18 18 17 21 19 21 20 21 21 21 22 23
36 36 34 33 35 20 14 16 18 18 19 20 20 21 20 18 17 14 12 14 15 15 15 16 19 17 19 20 22 21 22 25
36 35 34 35 21 16 16 16 18 19 19 20 22 20 19 16 15 14 12 12 13 12 12 14 16 15 19 21 24 23 22 23
Wind_Speed
25 25 23 21 19 18 17 14 14 12 10 9 9 8 12 10 3 4 1 4 5 5 7 9 11 12 14 13 9 10 9 12
23 22 20 21 18 20 15 18 15 14 12 9 8 12 12 11 7 2 4 2 2 2 5 7 9 10 10 10 6 10 9 10
20 20 20 19 17 17 17 16 15 13 11 8 4 6 5 3 7 11 9 6 6 3 5 8 10 10 13 11 8 7 4 8
18 18 17 17 19 17 17 14 13 13 13 12 10 8 6 9 12 15 14 14 9 5 6 8 10 10 13 11 8 9 6 4
18 17 17 17 16 16 14 12 11 12 11 12 13 11 9 7 7 9 14 13 10 12 10 11 13 13 14 11 7 5 4 7
17 17 16 16 15 13 10 9 10 10 8 10 11 12 8 7 10 14 14 15 14 14 14 14 13 12 11 8 7 8 4 4
17 15 16 14 11 9 8 8 7 8 8 10 11 11 10 12 13 12 12 12 13 13 14 12 12 12 9 5 6 6 5 5
18 18 14 11 9 6 6 8 7 6 10 10 10 10 11 12 11 11 12 13 9 13 12 12 12 12 10 7 9 6 5 8
17 16 14 11 7 6 9 9 6 6 8 8 9 11 10 9 9 9 10 10 12 11 13 11 12 11 11 10 7 6 7 12
18 16 12 9 6 7 6 5 4 5 6 8 10 11 11 10 11 11 10 11 11 13 14 12 13 11 11 9 3 9 12 15
17 14 11 7 5 6 8 6 5 6 8 9 9 9 9 10 11 13 13 14 14 16 16 15 13 11 10 2 8 14 14 16
17 13 9 7 6 8 8 6 9 10 9 7 9 11 9 11 13 14 15 15 17 17 16 15 14 11 6 8 14 15 18 19
16 14 11 9 8 8 6 7 10 9 6 8 10 12 10 13 15 16 15 17 18 17 16 15 14 10 6 13 16 18 20 19
14 12 9 7 5 6 5 8 10 8 8 11 13 14 12 15 16 18 17 18 19 19 17 17 12 6 12 14 15 19 19 17
13 11 8 5 5 6 8 9 10 8 10 11 14 15 14 15 17 18 19 17 18 17 17 14 9 10 12 15 18 18 19 17
14 10 5 5 6 7 9 10 11 11 13 13 14 14 14 17 18 18 18 18 18 16 17 15 12 9 16 22 20 18 19 19
12 8 7 6 8 6 10 11 12 12 13 13 13 15 15 17 16 16 17 18 18 17 18 16 15 13 26 29 28 20 19 18
10 10 8 7 7 9 13 12 11 13 14 12 14 14 14 15 14 17 18 18 17 18 18 18 18 18 28 30 31 20 19 17
12 10 7 7 12 15 13 12 14 14 12 13 15 15 12 13 15 18 17 16 16 17 18 18 17 18 28 32 31 21 18 19
Wind_Direction
94 91 87 84 82 78 75 65 55 56 44 28 21 7 358 360 61 87 46 58 56 51 33 16 5 359 352 350 344 346 339 348
85 84 85 84 74 74 65 61 45 44 33 13 358 347 357 26 58 325 307 352 5 38 34 9 356 351 343 338 327 339 334 353
86 84 83 82 80 73 65 59 48 42 32 12 8 3 6 36 10 19 6 329 324 16 17 352 345 346 344 337 338 333 315 16
100 93 88 82 75 72 65 57 47 40 34 32 18 19 16 15 16 14 16 26 37 55 358 350 349 347 341 331 330 351 338 328
110 107 96 92 83 71 63 53 45 34 31 39 38 33 24 3 5 2 13 20 16 12 2 355 349 350 351 347 353 2 350 330
116 112 107 94 84 75 65 53 41 23 31 40 43 38 30 6 7 10 10 10 6 5 359 1 3 357 357 11 12 360 331 295
118 114 105 96 85 75 61 47 24 28 41 44 43 37 19 10 4 10 5 360 355 360 355 354 351 345 350 336 337 342 334 296
131 121 112 102 89 69 50 31 44 45 61 48 38 23 13 10 10 5 3 357 349 343 345 346 342 340 339 306 317 321 314 309
129 127 120 109 91 58 55 46 68 60 58 44 30 25 27 22 10 0 356 346 336 326 337 331 330 334 329 328 308 307 293 297
128 123 119 104 81 67 49 69 71 46 49 41 32 28 28 16 5 359 345 334 326 328 323 320 320 319 331 322 330 313 302 300
126 131 123 104 78 51 53 89 51 40 58 46 35 23 21 10 358 347 339 328 325 327 322 321 315 315 327 341 325 320 309 307
141 136 120 96 56 61 101 68 48 52 72 47 27 15 9 358 349 342 337 328 328 328 323 320 315 321 329 338 329 317 313 311
146 134 119 89 67 80 85 63 55 79 65 41 20 13 5 356 351 345 338 337 332 330 330 325 329 336 360 340 327 321 317 313
139 128 109 91 58 50 65 60 72 71 52 38 23 14 5 355 352 348 342 342 341 340 344 341 348 25 350 333 322 322 316 316
123 118 106 65 70 20 92 71 71 56 50 38 24 12 6 1 355 355 354 351 351 351 352 359 15 7 344 340 335 329 326 320
131 128 118 118 57 48 82 76 64 58 44 33 20 10 3 6 5 4 359 358 357 358 5 7 3 345 354 348 342 335 327 322
131 128 123 104 55 71 89 72 63 53 37 31 15 7 12 13 9 8 3 360 356 358 1 356 352 337 349 349 348 339 330 320
128 125 131 83 38 82 85 73 56 42 36 24 9 8 24 16 17 14 8 358 354 356 355 355 349 347 352 349 349 340 332 323
125 127 99 60 89 93 83 61 48 40 23 14 2 8 31 23 26 20 9 360 357 355 351 349 346 349 351 351 352 340 335 335